Location: Kuppenheim
(48.8299°N, 8.2568°E)
Time: 05:19:13
(UTC+00:00)

Cosmos 1570 Rocket - Visible Passes

Search period start: 18 October 2021 00:00
Search period end: 28 October 2021 00:00
Orbit: 763 x 788 km, 74.1° (Epoch: 17 October)

Date Brightness Start Highest point End Pass type
(mag) Time Alt. Az. Time Alt. Az. Time Alt. Az.
18 Oct 4.9 02:35:16 47° ENE 02:35:16 47° ENE 02:39:16 10° NNE visible
18 Oct 5.1 04:15:43 24° WNW 04:16:40 25° NW 04:21:04 10° N visible
19 Oct 5.9 02:01:33 27° NE 02:01:33 27° NE 02:04:16 10° NE visible
19 Oct 4.8 03:42:00 35° NW 03:42:00 35° NW 03:46:30 10° N visible
20 Oct 6.7 01:27:47 16° NE 01:27:47 16° NE 01:29:03 10° NE visible
20 Oct 4.9 03:08:13 39° N 03:08:13 39° N 03:11:49 10° NNE visible
20 Oct 5.9 04:48:40 11° NW 04:50:09 12° NW 04:52:09 10° NNW visible
21 Oct 5.5 02:34:24 30° NNE 02:34:24 30° NNE 02:37:04 10° NNE visible
21 Oct 5.7 04:14:50 16° NW 04:14:52 16° NW 04:18:12 10° N visible
22 Oct 6.2 02:00:32 21° NNE 02:00:32 21° NNE 02:02:12 10° NNE visible
22 Oct 5.6 03:40:57 21° NNW 03:40:57 21° NNW 03:43:50 10° N visible
23 Oct 6.8 01:26:36 13° NE 01:26:36 13° NE 01:27:14 10° NE visible
23 Oct 5.8 03:07:02 22° N 03:07:02 22° N 03:09:19 10° N visible
24 Oct 6.1 02:33:05 19° N 02:33:05 19° N 02:34:40 10° NNE visible
24 Oct 6.2 04:13:31 11° NNW 04:13:31 11° NNW 04:14:28 10° NNW visible
25 Oct 6.6 01:59:06 15° NNE 01:59:06 15° NNE 01:59:57 10° NNE visible
25 Oct 6.1 03:39:32 13° NNW 03:39:32 13° NNW 03:40:52 10° N visible
26 Oct 7.0 01:25:07 10° NNE 01:25:07 10° NNE 01:25:07 10° NNE visible
26 Oct 6.3 03:05:32 14° N 03:05:32 14° N 03:06:35 10° N visible
27 Oct 6.5 02:31:30 13° N 02:31:30 13° N 02:32:07 10° N visible
